Location: *
(42.0175°N, 9.4056°E)
Time: 12:48:36
(UTC+00:00)

Lacrosse 4 Rocket - Pass Details

Date: 25 August 2019
Orbit: 544 x 615 km, 68.0° (Epoch: 23 October)

Event Time Altitude Azimuth Distance (km) Brightness Sun altitude
Rises 22:27:31 0° 338° (NNW) 2,757 5.9 -35.8°
Reaches altitude 10° 22:29:52 10° 346° (NNW) 1,847 4.8 -35.9°
Enters shadow 22:30:27 14° 350° (N) 1,628 4.4 -35.9°
